Time,TemperatureF,DewpointF,PressureIn,WindDirection,WindDirectionDegrees,WindSpeedMPH,WindSpeedGustMPH,Humidity,HourlyPrecipIn,Conditions,Clouds,dailyrainin,SoftwareType,DateUTC
2013-01-29 00:07:00,68.7,67.0,30.04,South,191,2.0,12.0,94,0.00,,,0.00,weatherlink.com 1.10,2013-01-29 06:07:00,
2013-01-29 00:22:00,68.8,67.0,30.04,South,177,2.0,17.0,94,0.00,,,0.00,weatherlink.com 1.10,2013-01-29 06:22:00,
2013-01-29 00:37:00,68.8,67.0,30.03,South,173,10.0,16.0,94,0.00,,,0.00,weatherlink.com 1.10,2013-01-29 06:37:00,
2013-01-29 00:52:00,69.0,67.0,30.03,South,172,7.0,17.0,94,0.00,,,0.00,weatherlink.com 1.10,2013-01-29 06:52:00,
2013-01-29 01:07:00,69.0,67.0,30.02,SSW,207,5.0,15.0,94,0.00,,,0.00,weatherlink.com 1.10,2013-01-29 07:07:00,
2013-01-29 01:22:00,68.9,67.0,30.02,ESE,110,5.0,13.0,94,0.00,,,0.00,weatherlink.com 1.10,2013-01-29 07:22:00,
2013-01-29 01:37:00,69.1,67.0,30.01,SSE,167,3.0,11.0,94,0.00,,,0.00,weatherlink.com 1.10,2013-01-29 07:37:00,
2013-01-29 01:52:00,69.2,67.0,30.00,SSW,197,10.0,18.0,94,0.00,,,0.00,weatherlink.com 1.10,2013-01-29 07:52:00,
2013-01-29 02:07:00,69.4,68.0,30.01,ESE,122,2.0,11.0,94,0.00,,,0.00,weatherlink.com 1.10,2013-01-29 08:07:00,
2013-01-29 02:22:00,69.6,68.0,30.00,SW,217,4.0,10.0,94,0.00,,,0.00,weatherlink.com 1.10,2013-01-29 08:22:00,
2013-01-29 02:37:00,69.6,68.0,30.00,East,97,4.0,13.0,94,0.00,,,0.00,weatherlink.com 1.10,2013-01-29 08:37:00,
2013-01-29 02:52:00,69.6,67.0,29.99,South,190,3.0,16.0,93,0.00,,,0.00,weatherlink.com 1.10,2013-01-29 08:52:00,
2013-01-29 03:07:00,69.5,67.0,29.98,South,174,9.0,15.0,93,0.00,,,0.00,weatherlink.com 1.10,2013-01-29 09:07:00,
2013-01-29 03:22:00,69.5,68.0,29.98,SSW,194,6.0,15.0,94,0.00,,,0.00,weatherlink.com 1.10,2013-01-29 09:22:00,
2013-01-29 03:37:00,69.3,67.0,29.97,South,180,9.0,14.0,94,0.00,,,0.00,weatherlink.com 1.10,2013-01-29 09:37:00,
2013-01-29 03:52:00,69.4,68.0,29.97,SE,124,9.0,17.0,94,0.00,,,0.00,weatherlink.com 1.10,2013-01-29 09:52:00,
2013-01-29 04:07:00,69.3,67.0,29.97,SE,142,8.0,14.0,94,0.00,,,0.00,weatherlink.com 1.10,2013-01-29 10:07:00,
2013-01-29 04:22:00,69.3,67.0,29.96,SSE,162,5.0,12.0,94,0.00,,,0.00,weatherlink.com 1.10,2013-01-29 10:22:00,
2013-01-29 04:37:00,69.4,68.0,29.95,SE,145,6.0,12.0,94,0.00,,,0.00,weatherlink.com 1.10,2013-01-29 10:37:00,
2013-01-29 04:52:00,69.4,68.0,29.95,SSE,164,10.0,12.0,94,0.00,,,0.00,weatherlink.com 1.10,2013-01-29 10:52:00,
2013-01-29 05:06:00,69.3,67.0,29.94,SE,146,6.0,16.0,94,0.00,,,0.00,weatherlink.com 1.10,2013-01-29 11:06:00,
2013-01-29 05:21:00,69.3,67.0,29.94,SSW,201,3.0,17.0,94,0.00,,,0.00,weatherlink.com 1.10,2013-01-29 11:21:00,
2013-01-29 05:36:00,69.3,67.0,29.94,SSE,158,9.0,13.0,94,0.00,,,0.00,weatherlink.com 1.10,2013-01-29 11:36:00,
2013-01-29 05:51:00,69.3,67.0,29.94,SE,139,3.0,16.0,94,0.00,,,0.00,weatherlink.com 1.10,2013-01-29 11:51:00,
2013-01-29 06:06:00,69.4,68.0,29.94,SSE,167,6.0,13.0,94,0.00,,,0.00,weatherlink.com 1.10,2013-01-29 12:06:00,
2013-01-29 06:21:00,69.4,68.0,29.94,SSE,153,7.0,17.0,94,0.00,,,0.00,weatherlink.com 1.10,2013-01-29 12:21:00,
2013-01-29 06:36:00,69.3,67.0,29.93,ESE,113,8.0,14.0,94,0.00,,,0.00,weatherlink.com 1.10,2013-01-29 12:36:00,
2013-01-29 06:51:00,69.3,68.0,29.93,SSE,168,2.0,20.0,95,0.00,,,0.00,weatherlink.com 1.10,2013-01-29 12:51:00,
2013-01-29 07:06:00,69.4,68.0,29.93,SE,142,7.0,14.0,95,0.00,,,0.00,weatherlink.com 1.10,2013-01-29 13:06:00,
2013-01-29 07:21:00,69.5,68.0,29.93,SSE,159,7.0,20.0,95,0.00,,,0.00,weatherlink.com 1.10,2013-01-29 13:21:00,
2013-01-29 07:36:00,69.6,68.0,29.93,SSW,207,8.0,20.0,94,0.00,,,0.00,weatherlink.com 1.10,2013-01-29 13:36:00,
2013-01-29 07:51:00,69.8,68.0,29.93,SSE,153,10.0,20.0,94,0.00,,,0.00,weatherlink.com 1.10,2013-01-29 13:51:00,
2013-01-29 08:06:00,69.9,68.0,29.93,South,169,11.0,22.0,94,0.00,,,0.00,weatherlink.com 1.10,2013-01-29 14:06:00,
2013-01-29 08:21:00,70.1,68.0,29.95,SSE,158,9.0,17.0,94,0.00,,,0.00,weatherlink.com 1.10,2013-01-29 14:21:00,
2013-01-29 08:36:00,70.2,68.0,29.96,SW,229,10.0,16.0,94,0.00,,,0.00,weatherlink.com 1.10,2013-01-29 14:36:00,
2013-01-29 08:51:00,70.1,68.0,29.94,SSE,150,13.0,17.0,94,0.00,,,0.00,weatherlink.com 1.10,2013-01-29 14:51:00,
2013-01-29 09:06:00,70.3,68.0,29.94,SSE,153,4.0,17.0,94,0.00,,,0.00,weatherlink.com 1.10,2013-01-29 15:06:00,
2013-01-29 09:21:00,70.7,69.0,29.94,SSW,195,13.0,20.0,93,0.00,,,0.00,weatherlink.com 1.10,2013-01-29 15:21:00,
2013-01-29 09:36:00,71.0,69.0,29.94,South,172,9.0,25.0,93,0.00,,,0.00,weatherlink.com 1.10,2013-01-29 15:36:00,
2013-01-29 09:51:00,71.6,69.0,29.94,SE,146,16.0,20.0,92,0.00,,,0.00,weatherlink.com 1.10,2013-01-29 15:51:00,
2013-01-29 10:06:00,72.2,69.0,29.93,SSW,197,8.0,22.0,91,0.00,,,0.00,weatherlink.com 1.10,2013-01-29 16:06:00,
2013-01-29 10:21:00,73.0,70.0,29.93,South,169,12.0,26.0,89,0.00,,,0.00,weatherlink.com 1.10,2013-01-29 16:21:00,
2013-01-29 10:36:00,73.1,69.0,29.92,ESE,122,13.0,25.0,87,0.00,,,0.00,weatherlink.com 1.10,2013-01-29 16:36:00,
2013-01-29 10:51:00,73.1,69.0,29.91,SE,128,5.0,20.0,87,0.00,,,0.00,weatherlink.com 1.10,2013-01-29 16:51:00,
2013-01-29 11:06:00,73.2,69.0,29.90,SE,128,15.0,24.0,87,0.00,,,0.00,weatherlink.com 1.10,2013-01-29 17:06:00,
2013-01-29 11:21:00,73.8,70.0,29.90,SSE,150,4.0,25.0,87,0.00,,,0.00,weatherlink.com 1.10,2013-01-29 17:21:00,
2013-01-29 11:37:00,75.0,70.0,29.88,SE,136,17.0,30.0,84,0.00,,,0.00,weatherlink.com 1.10,2013-01-29 17:37:00,
2013-01-29 11:52:00,76.0,70.0,29.87,SSE,164,7.0,34.0,83,0.00,,,0.00,weatherlink.com 1.10,2013-01-29 17:52:00,
2013-01-29 12:08:00,75.8,70.0,29.86,SSE,148,20.0,30.0,82,0.00,,,0.00,weatherlink.com 1.10,2013-01-29 18:08:00,
2013-01-29 12:23:00,75.5,70.0,29.86,South,181,12.0,32.0,83,0.00,,,0.00,weatherlink.com 1.10,2013-01-29 18:23:00,
2013-01-29 12:38:00,74.9,70.0,29.84,SSE,149,10.0,24.0,84,0.00,,,0.00,weatherlink.com 1.10,2013-01-29 18:38:00,
2013-01-29 12:53:00,74.2,69.0,29.84,WSW,243,9.0,24.0,85,0.00,,,0.00,weatherlink.com 1.10,2013-01-29 18:53:00,
2013-01-29 13:08:00,73.7,70.0,29.82,SSW,204,7.0,25.0,87,0.00,,,0.00,weatherlink.com 1.10,2013-01-29 19:08:00,
2013-01-29 13:23:00,73.9,69.0,29.81,SSW,203,12.0,20.0,86,0.00,,,0.00,weatherlink.com 1.10,2013-01-29 19:23:00,
2013-01-29 13:38:00,73.6,70.0,29.80,SSW,212,10.0,20.0,88,0.00,,,0.00,weatherlink.com 1.10,2013-01-29 19:38:00,
2013-01-29 13:53:00,73.5,70.0,29.79,SE,125,7.0,20.0,88,0.00,,,0.00,weatherlink.com 1.10,2013-01-29 19:53:00,
2013-01-29 14:09:00,73.2,70.0,29.78,SSE,156,11.0,21.0,89,0.00,,,0.00,weatherlink.com 1.10,2013-01-29 20:09:00,
2013-01-29 14:24:00,72.9,70.0,29.78,SSE,149,16.0,25.0,90,0.00,,,0.00,weatherlink.com 1.10,2013-01-29 20:24:00,
2013-01-29 14:39:00,72.9,70.0,29.77,SSW,198,3.0,28.0,90,0.00,,,0.00,weatherlink.com 1.10,2013-01-29 20:39:00,
2013-01-29 14:54:00,72.9,70.0,29.75,SW,215,15.0,23.0,91,0.00,,,0.00,weatherlink.com 1.10,2013-01-29 20:54:00,
2013-01-29 15:09:00,72.9,70.0,29.75,SSW,212,10.0,21.0,91,0.00,,,0.00,weatherlink.com 1.10,2013-01-29 21:09:00,
2013-01-29 15:24:00,72.9,70.0,29.74,South,187,7.0,28.0,91,0.00,,,0.00,weatherlink.com 1.10,2013-01-29 21:24:00,
2013-01-29 15:39:00,73.0,70.0,29.74,SE,125,8.0,26.0,91,0.00,,,0.00,weatherlink.com 1.10,2013-01-29 21:39:00,
2013-01-29 15:55:00,73.0,70.0,29.74,South,184,12.0,17.0,91,0.00,,,0.00,weatherlink.com 1.10,2013-01-29 21:55:00,
2013-01-29 16:10:00,72.8,70.0,29.73,SSE,159,5.0,20.0,92,0.00,,,0.00,weatherlink.com 1.10,2013-01-29 22:10:00,
2013-01-29 16:25:00,72.5,70.0,29.72,SSE,149,21.0,25.0,92,0.00,,,0.00,weatherlink.com 1.10,2013-01-29 22:25:00,
2013-01-29 16:40:00,72.5,70.0,29.73,SSE,153,13.0,23.0,92,0.00,,,0.00,weatherlink.com 1.10,2013-01-29 22:40:00,
2013-01-29 16:55:00,72.5,70.0,29.73,SSE,165,19.0,24.0,93,0.00,,,0.00,weatherlink.com 1.10,2013-01-29 22:55:00,
2013-01-29 17:10:00,72.3,70.0,29.72,South,180,7.0,23.0,93,0.00,,,0.00,weatherlink.com 1.10,2013-01-29 23:10:00,
2013-01-29 17:25:00,72.3,70.0,29.72,South,191,5.0,25.0,93,0.00,,,0.00,weatherlink.com 1.10,2013-01-29 23:25:00,
2013-01-29 17:39:00,71.9,70.0,29.72,South,169,12.0,21.0,93,0.00,,,0.00,weatherlink.com 1.10,2013-01-29 23:39:00,
2013-01-29 17:55:00,72.0,70.0,29.71,SSW,201,11.0,26.0,93,0.00,,,0.00,weatherlink.com 1.10,2013-01-29 23:55:00,
2013-01-29 18:09:00,72.0,70.0,29.71,South,172,13.0,25.0,93,0.00,,,0.00,weatherlink.com 1.10,2013-01-30 00:09:00,
2013-01-29 18:25:00,72.1,70.0,29.71,SW,215,7.0,24.0,93,0.00,,,0.00,weatherlink.com 1.10,2013-01-30 00:25:00,
2013-01-29 18:40:00,72.1,70.0,29.71,SSE,152,9.0,22.0,92,0.00,,,0.00,weatherlink.com 1.10,2013-01-30 00:40:00,
2013-01-29 18:54:00,72.2,70.0,29.71,South,173,8.0,30.0,92,0.00,,,0.00,weatherlink.com 1.10,2013-01-30 00:54:00,
2013-01-29 19:09:00,72.2,70.0,29.71,SSW,200,13.0,23.0,92,0.00,,,0.00,weatherlink.com 1.10,2013-01-30 01:09:00,
2013-01-29 19:24:00,72.1,70.0,29.71,SSE,160,11.0,23.0,92,0.00,,,0.00,weatherlink.com 1.10,2013-01-30 01:24:00,
2013-01-29 19:39:00,71.9,69.0,29.71,SW,225,7.0,25.0,92,0.00,,,0.00,weatherlink.com 1.10,2013-01-30 01:39:00,
2013-01-29 19:54:00,71.8,69.0,29.72,SW,218,11.0,27.0,92,0.00,,,0.00,weatherlink.com 1.10,2013-01-30 01:54:00,
2013-01-29 20:09:00,71.8,70.0,29.71,SW,222,6.0,27.0,93,0.00,,,0.00,weatherlink.com 1.10,2013-01-30 02:09:00,
2013-01-29 20:24:00,71.8,70.0,29.71,SW,215,6.0,24.0,93,0.00,,,0.00,weatherlink.com 1.10,2013-01-30 02:24:00,
2013-01-29 20:39:00,71.8,70.0,29.71,SSW,200,10.0,21.0,93,0.00,,,0.00,weatherlink.com 1.10,2013-01-30 02:39:00,
2013-01-29 20:54:00,71.6,69.0,29.69,South,173,9.0,23.0,93,0.00,,,0.00,weatherlink.com 1.10,2013-01-30 02:54:00,
2013-01-29 21:09:00,71.8,69.0,29.70,South,182,16.0,26.0,92,0.00,,,0.00,weatherlink.com 1.10,2013-01-30 03:09:00,
2013-01-29 21:24:00,71.6,69.0,29.70,SSW,204,11.0,23.0,92,0.00,,,0.00,weatherlink.com 1.10,2013-01-30 03:24:00,
2013-01-29 21:38:00,71.6,69.0,29.70,SSE,156,21.0,29.0,93,0.00,,,0.00,weatherlink.com 1.10,2013-01-30 03:38:00,
2013-01-29 21:53:00,71.6,69.0,29.70,SSE,167,11.0,24.0,93,0.00,,,0.00,weatherlink.com 1.10,2013-01-30 03:53:00,
2013-01-29 22:09:00,71.7,70.0,29.71,SSW,201,5.0,21.0,93,0.00,,,0.00,weatherlink.com 1.10,2013-01-30 04:09:00,
2013-01-29 22:24:00,71.7,70.0,29.71,SW,222,19.0,27.0,93,0.00,,,0.00,weatherlink.com 1.10,2013-01-30 04:24:00,
2013-01-29 22:38:00,71.6,69.0,29.70,WSW,243,18.0,23.0,93,0.00,,,0.00,weatherlink.com 1.10,2013-01-30 04:38:00,
2013-01-29 22:53:00,71.5,69.0,29.70,SSW,194,14.0,20.0,93,0.00,,,0.00,weatherlink.com 1.10,2013-01-30 04:53:00,
2013-01-29 23:08:00,71.3,69.0,29.69,SSE,168,7.0,22.0,93,0.00,,,0.00,weatherlink.com 1.10,2013-01-30 05:08:00,
2013-01-29 23:23:00,71.3,69.0,29.69,SSW,203,12.0,19.0,93,0.00,,,0.00,weatherlink.com 1.10,2013-01-30 05:23:00,
2013-01-29 23:38:00,71.3,69.0,29.69,SSE,150,6.0,20.0,93,0.00,,,0.00,weatherlink.com 1.10,2013-01-30 05:38:00,
2013-01-29 23:53:00,71.3,69.0,29.71,WSW,239,9.0,19.0,93,0.00,,,0.00,weatherlink.com 1.10,2013-01-30 05:53:00,